This demonstration page uses our WeatherBlox Daily Observations layout. Learn more.

Left ArrowRight Arrow

Hourly Observations for October 26, 2021

Temp ( °F °C ) Dew Point ( °F °C ) Humidity (%) Winds ( mph kmh ) Pressure ( in mb ) Visibility ( mi km ) Precip ( " mm )
12:53 am 00:53 Clear 67 19.4 51 10.6 57 57 SE 7 11 29.75 1008 10 16 N/A
1:53 am 01:53 Clear 66 18.9 54 12.2 65 65 SE 8 13 29.74 1007 10 16 N/A
2:53 am 02:53 Clear 67 19.4 59 15 76 76 SE 12 19 29.72 1006 10 16 N/A
3:53 am 03:53 Clear 66 18.9 60 15.6 81 81 SE 12 19 29.70 1006 10 16 N/A
4:53 am 04:53 Clear 66 18.9 60 15.6 81 81 SE 13 20 29.67 1005 10 16 N/A
5:53 am 05:53 Clear 66 18.9 59 15 78 78 SE 13 20 29.66 1005 10 16 N/A
6:53 am 06:53 Clear 65 18.3 58 14.4 78 78 SE 10 17 29.67 1005 10 16 N/A
7:53 am 07:53 Clear 63 17.2 58 14.4 84 84 SE 10 17 29.68 1005 10 16 N/A
8:53 am 08:53 Sunny 66 18.9 59 15 78 78 SE 14 22 29.67 1005 10 16 N/A
9:53 am 09:53 Sunny 72 22.2 59 15 64 64 SSE 16 26 29.66 1004 10 16 N/A
10:53 am 10:53 Sunny 78 25.6 57 13.9 48 48 SSE 15 24 29.65 1004 10 16 N/A
11:53 am 11:53 Sunny 83 28.3 49 9.4 31 31 SW 10 17 29.65 1004 10 16 N/A
12:53 pm 12:53 Sunny 87 30.6 42 5.6 21 21 SW 14 22 29.61 1003 10 16 N/A
1:53 pm 13:53 Sunny 91 32.8 35 1.7 14 14 WSW 15 24 29.55 1001 10 16 N/A
2:53 pm 14:53 Sunny 94 34.4 22 -5.6 7 7 WSW 26 43 29.50 999 10 16 N/A
3:53 pm 15:53 Sunny 94 34.4 13 -10.6 5 5 W 28 44 29.47 998 10 16 N/A
4:53 pm 16:53 Sunny 92 33.3 16 -8.9 6 6 W 30 48 29.47 998 10 16 N/A
5:53 pm 17:53 Sunny 89 31.7 21 -6.1 8 8 W 24 39 29.47 998 10 16 N/A
6:53 pm 18:53 Sunny 85 29.4 33 0.6 15 15 WNW 24 39 29.48 998 10 16 N/A
7:53 pm 19:53 Clear 80 26.7 32 undefined 17 17 W 18 30 29.52 1000 10 16 N/A
8:53 pm 20:53 Clear with Light Rain 78 25.6 33 0.6 19 19 W 30 48 29.56 1001 10 16 0.00 0.00
9:53 pm 21:53 Clear with Light Rain 76 24.4 33 0.6 21 21 W 25 41 29.56 1001 10 16 0.00 0.00
10:53 pm 22:53 Clear 73 22.8 34 1.1 24 24 WNW 23 37 29.56 1001 10 16 0.00 0.00
11:53 pm 23:53 Clear 70 21.1 24 -4.4 18 18 W 22 35 29.59 1002 10 16 N/A

Powered by AerisWeather